General Aviation Weather

Text Reports

Enter one or more of the following location identifiers separated by a space:

Zip Code, Four-Character ICAO or Three-Character IATA airport codes.

METAR - Aviation Routine Weather Report
KMLT - Millinocket, Maine
Updated at 10:53 PM GMT on July 26, 2016 (6:53 PM EDT):
METAR KMLT 262253Z AUTO 31008G17KT 10SM CLR 27/16 A2976 RMK AO2 SLP081 T02720161
TAF - Terminal Area Forecast
KMLT - Millinocket, Maine
Updated at 10:53 PM GMT on July 26, 2016 (6:53 PM EDT):
No TAF is currently available for this location.
Decoded:
No decoded TAF is available.
PIREP - Pilot Weather Report
KMLT - Millinocket, Maine
Updated at 10:53 PM GMT on July 26, 2016 (6:53 PM EDT):
No PIREP is currently available for this location.
AIRMET - Airmens Meteorological Information
KMLT - Millinocket, Maine
Updated at 10:53 PM GMT on July 26, 2016 (6:53 PM EDT):
No AIRMET is currently available for this location.
SIGMET - Significant Meteorological Information
KMLT - Millinocket, Maine
Updated at 10:53 PM GMT on July 26, 2016 (6:53 PM EDT):
No SIGMET is currently available for this location.
NOTAM - Notice to Airmen
KMLT - Millinocket, Maine
Updated at 10:53 PM GMT on July 26, 2016 (6:53 PM EDT):
No NOTAM is currently available for this location.
Forecast Area
KMLT - Millinocket, Maine
Updated at 10:53 PM GMT on July 26, 2016 (6:53 PM EDT):
No NOTAM is currently available for this location.
Aviation Weather Maps